User: anonymous   Login
Location: Buckeye Ditch
(40.9104°N, 122.9517°W)
Time: 08:35:25
(UTC+00:00)
Language:

Cosmos 1151 Rocket - Orbit

View from above orbital plane
View from above orbital plane
View from above satellite
View from above satellite

Ground track
Ground track

The orbit data is extracted from the following two-line orbital elements,

1 11672U 80005B   24170.13859961  .00000772  00000-0  78324-4 0  9990
2 11672  82.5144 183.7726 0017810 100.6734 259.6491 14.89443849403833
Epoch (UTC): 18 June 2024 03:19:35
Eccentricity: 0.0017810
inclination: 82.5144°
perigee height: 587 km
apogee height: 612 km
right ascension of ascending node: 183.7726°
argument of perigee: 100.6734°
revolutions per day: 14.89443849
mean anomaly at epoch: 259.6491°
orbit number at epoch: 40383

The dashed part of the orbit path shows where the satellite is in the earth's shadow,  

DLR